[[{"header":{"parameterUnit":"m.s-1","parameterCategory":1,"la1":30.2991,"la2":30.254,"lo1":-89.0895,"lo2":-89.0444,"dy":0.0017,"dx":0.0017,"nx":28,"ny":28,"refTime":"2025-03-23T09:00:00:Z","depth":0,"parameterNumber":2,"parameterNumberName":"U-component_of_WINDS"},"data":[0,0,0,0,0,0,0,0,0,0,0,0,0,0,0,0,0,0,0,0,0,0,0,0,0,0,0,0,0,0,0,0,0,0,0,0,0,0,0,0,0,0,0,0,0,0,0,0,0,0,0,0,0,0,0,0,0,0,0.82,0.82,0,0.8227,0.8227,0.8228,0.8217,0.8216,0.8215,0.8215,0.8242,0.8243,0.8244,0,0,0,0,0,0,0,0,0,0,0,0,0,0.8137,0.8139,0.82,0.82,0.8201,0.8227,0.8228,0.8228,0.8217,0.8216,0.8215,0.8215,0.8241,0.8243,0.8244,0,0,0,0,0,0,0,0,0,0,0,0,0,0.8165,0.8139,0.82,0.8199,0.8199,0.8227,0.8228,0.8228,0.8217,0.8216,0.8215,0.8214,0.8241,0.8243,0.8244,0.8276,0,0,0.825,0.8251,0,0,0,0,0,0,0,0,0.8163,0.8167,0.8198,0.8199,0.8199,0.8218,0.8215,0.8244,0.8217,0.821,0.8215,0.8214,0.8234,0.8237,0.8244,0.8277,0.8278,0.8251,0.8252,0.8253,0.8253,0,0,0,0,0,0,0,0.8161,0.8166,0.8211,0.8199,0.8199,0.8196,0.8199,0.8221,0.8227,0.8211,0.821,0.8213,0.8234,0.8242,0.8244,0.8279,0.8251,0.8252,0.8254,0.8254,0.8337,0.8338,0,0,0,0,0,0,0.8159,0.8164,0.821,0.8212,0.8178,0.8198,0.8201,0.8213,0.8227,0.8228,0.8214,0.8213,0.8239,0.8242,0.8245,0.8282,0.8253,0.8254,0.8256,0.8336,0.8337,0.8339,0,0,0,0,0,0,0.8158,0.8164,0.8209,0.8188,0.8193,0.82,0.8213,0.8214,0.8221,0.823,0.8231,0.8221,0.8239,0.8243,0.8268,0.8282,0.8255,0.8257,0.8335,0.8337,0.8338,0.8355,0,0,0,0,0,0,0.8156,0.8163,0.8175,0.8188,0.8194,0.8231,0.8214,0.8215,0.8225,0.8223,0.8236,0.8237,0.8238,0.8265,0.827,0.8285,0.8259,0.8334,0.8336,0.8338,0.8353,0.8357,0.836,0,0,0,0,0,0.8154,0.8179,0.8176,0.8182,0.821,0.8232,0.8236,0.8236,0.8226,0.8238,0.8243,0.8237,0.828,0.8268,0.8273,0.8289,0.8333,0.8335,0.8337,0.8352,0.8356,0.836,0,0,0,0,0,0,0.8168,0.8181,0.8178,0.8208,0.8219,0.823,0.8246,0.8242,0.8256,0.8254,0.8254,0.8257,0.8283,0.8288,0.8274,0.8319,0.8305,0.8308,0.8314,0.8319,0.8322,0.8319,0.826,0,0,0,0,0,0.8174,0.8192,0.8202,0.8228,0.8234,0.8239,0.8249,0.8248,0.826,0.8264,0.8271,0.8283,0.8299,0.8309,0.8325,0.8355,0.8357,0.8368,0.8371,0.8374,0.8377,0.8392,0.8397,0.8346,0.8346,0.8346,0,0,0.8188,0.8197,0.8208,0.8231,0.824,0.8257,0.8243,0.8262,0.8275,0.8267,0.8291,0.8297,0.8309,0.8337,0.835,0.8343,0.8391,0.8377,0.8379,0.838,0.8395,0.84,0.8404,0.8348,0.8347,0.8347,0,0,0.8221,0.8231,0.8252,0.8262,0.8275,0.8278,0.8284,0.8296,0.8299,0.8324,0.8318,0.8333,0.8361,0.837,0.8378,0.8414,0.8408,0.8419,0.8437,0.8452,0.8456,0.8459,0.8471,0.8475,0.8422,0.8422,0.8422,0,0.8236,0.8263,0.8264,0.8284,0.8293,0.8288,0.8309,0.8318,0.8335,0.8342,0.8334,0.8368,0.8377,0.8405,0.8414,0.8422,0.8427,0.8417,0.8455,0.8459,0.8462,0.8473,0.8478,0.8423,0.8423,0.8423,0.8423,0,0.828,0.8298,0.8314,0.8331,0.8343,0.8364,0.8367,0.8379,0.8377,0.8381,0.8405,0.8415,0.8431,0.8439,0.8438,0.8467,0.8462,0.8455,0.8441,0.8468,0.8478,0.8483,0.8425,0.8425,0.8424,0.8424,0,0,0.8322,0.834,0.8345,0.8352,0.8367,0.8381,0.8401,0.8418,0.8427,0.8439,0.8455,0.8479,0.8472,0.8481,0.8481,0.8494,0.8521,0.8485,0.8486,0.849,0.8553,0.8557,0.8562,0.8518,0.8519,0.852,0.8551,0,0.8355,0.839,0.8392,0.8423,0.844,0.8435,0.8452,0.8462,0.8467,0.8481,0.8485,0.8501,0.8492,0.8497,0.851,0.8515,0.8533,0.8513,0.8532,0.8532,0.8527,0.8568,0.8573,0.8602,0.8555,0.8556,0.8557,0,0.8398,0.8412,0.8445,0.8457,0.8464,0.8479,0.8494,0.8508,0.852,0.8522,0.8532,0.853,0.8549,0.8536,0.8562,0.8548,0.8556,0.856,0.8561,0.8561,0.8545,0.8568,0.8612,0.8615,0.8563,0.8563,0.8562,0,0.8423,0.8451,0.8474,0.8481,0.8495,0.8506,0.8512,0.8523,0.8532,0.8545,0.8551,0.8567,0.8575,0.8586,0.8588,0.8578,0.8614,0.86,0.8615,0.8615,0.8622,0.8621,0.8666,0.8629,0.8629,0.8629,0.8629,0,0.846,0.848,0.8485,0.8499,0.8522,0.8523,0.8545,0.8551,0.856,0.8575,0.8572,0.8585,0.8587,0.8601,0.8603,0.8624,0.8628,0.8629,0.8629,0.8629,0.8628,0.8633,0.863,0.863,0.863,0.863,0.863,0,0.8491,0.8496,0.852,0.8532,0.8535,0.8551,0.8561,0.8574,0.8578,0.8596,0.8601,0.8607,0.8623,0.8626,0.8646,0.8647,0.8671,0.867,0.8667,0.8666,0.8681,0.8679,0.8728,0.8735,0.8696,0.8696,0.8696,0,0.8513,0.8528,0.8542,0.8551,0.8558,0.8574,0.8584,0.8586,0.8596,0.861,0.8621,0.8638,0.865,0.8676,0.8682,0.8697,0.8695,0.8711,0.8697,0.8695,0.8693,0.8692,0.8693,0.8713,0.8714,0.8714,0.8714,0,0.8551,0.8552,0.8567,0.8582,0.8594,0.8606,0.8617,0.8625,0.8629,0.864,0.8657,0.8667,0.8686,0.8702,0.8716,0.8722,0.8719,0.8719,0.8723,0.8722,0.8719,0.8719,0.8673,0.8718,0.8717,0.8717,0.8717,0.8717,0.8577,0.859,0.8601,0.8617,0.8626,0.8637,0.8649,0.8655,0.8669,0.8685,0.8686,0.8704,0.8714,0.8734,0.8741,0.8754,0.8749,0.8755,0.8756,0.8757,0.8758,0.8718,0.8757,0.8757,0.8757,0.8757,0.8757,0,0.8613,0.8621,0.8635,0.8651,0.8664,0.866,0.8672,0.8683,0.8699,0.8709,0.8722,0.874,0.8755,0.8763,0.8777,0.8787,0.8785,0.879,0.8789,0.879,0.8762,0.8757,0.8791,0.8791,0.8791,0.8791,0.8791,0.8791,0.8634,0.8655,0.8658,0.8684,0.8691,0.8708,0.8716,0.8725,0.8733,0.8754,0.8767,0.8772,0.878,0.8796,0.8809,0.8811,0.8815,0.8821,0.8822,0.8796,0.8792,0.8789,0.8783,0.8823,0.8823,0.8848,0.8848,0.8848]},{"header":{"parameterUnit":"m.s-1","parameterCategory":1,"la1":30.2991,"la2":30.254,"lo1":-89.0895,"lo2":-89.0444,"dy":0.0017,"dx":0.0017,"nx":28,"ny":28,"refTime":"2025-03-23T09:00:00:Z","depth":0,"parameterNumber":3,"parameterNumberName":"V-component_of_WINDS"},"data":[0,0,0,0,0,0,0,0,0,0,0,0,0,0,0,0,0,0,0,0,0,0,0,0,0,0,0,0,0,0,0,0,0,0,0,0,0,0,0,0,0,0,0,0,0,0,0,0,0,0,0,0,0,0,0,0,0,0,3.2215,3.2216,0,3.2311,3.2312,3.2313,3.2263,3.226,3.2258,3.2255,3.2352,3.2357,3.2362,0,0,0,0,0,0,0,0,0,0,0,0,0,3.1984,3.1988,3.2215,3.2216,3.2217,3.2311,3.2312,3.2314,3.2263,3.226,3.2257,3.2254,3.235,3.2356,3.2362,0,0,0,0,0,0,0,0,0,0,0,0,0,3.2083,3.199,3.2215,3.2203,3.2203,3.2311,3.2312,3.2314,3.2264,3.226,3.2256,3.2252,3.2348,3.2355,3.2363,3.2486,0,0,3.2386,3.2389,0,0,0,0,0,0,0,0,3.2077,3.2091,3.2204,3.2204,3.2204,3.2271,3.2266,3.2372,3.2265,3.2241,3.2255,3.2251,3.2328,3.2337,3.2363,3.2491,3.2495,3.2386,3.2391,3.2394,3.2396,0,0,0,0,0,0,0,3.207,3.2087,3.2253,3.2205,3.2206,3.2192,3.2202,3.2286,3.2305,3.2243,3.2239,3.2251,3.2327,3.2356,3.2365,3.2496,3.2386,3.2393,3.2397,3.24,3.2728,3.2732,0,0,0,0,0,0,3.2064,3.2081,3.225,3.2256,3.213,3.22,3.2211,3.2254,3.2304,3.2308,3.2255,3.2249,3.2345,3.2357,3.2368,3.2516,3.2394,3.2401,3.2405,3.2724,3.2729,3.2734,0,0,0,0,0,0,3.206,3.208,3.2246,3.2168,3.2188,3.2208,3.2256,3.2257,3.2286,3.2313,3.2316,3.2281,3.2343,3.2358,3.2457,3.2518,3.2404,3.2411,3.2719,3.2726,3.2732,3.2811,0,0,0,0,0,0,3.2053,3.2079,3.2127,3.2169,3.2192,3.2334,3.226,3.2262,3.23,3.2293,3.2338,3.2342,3.2341,3.2446,3.2465,3.2526,3.2417,3.2714,3.2722,3.273,3.2803,3.282,3.2834,0,0,0,0,0,3.2045,3.2145,3.2129,3.215,3.2253,3.2338,3.2351,3.2348,3.2305,3.2353,3.2369,3.2341,3.2508,3.2457,3.2477,3.2542,3.271,3.272,3.2729,3.2797,3.2817,3.2833,0,0,0,0,0,0,3.2109,3.215,3.2133,3.225,3.2291,3.2329,3.239,3.237,3.2423,3.2414,3.2408,3.2418,3.2522,3.2541,3.2483,3.2663,3.2602,3.2616,3.2647,3.2666,3.2681,3.2674,3.2423,0,0,0,0,0,3.2136,3.2203,3.2235,3.2335,3.2357,3.237,3.2407,3.2401,3.2443,3.2459,3.2483,3.2524,3.2586,3.2627,3.2685,3.2806,3.2814,3.286,3.2875,3.2888,3.29,3.2964,3.2985,3.2765,3.2765,3.2765,0,0,3.2194,3.2225,3.2268,3.2349,3.238,3.2448,3.2385,3.246,3.251,3.2471,3.2566,3.2585,3.263,3.274,3.279,3.276,3.2962,3.29,3.2909,3.2915,3.2976,3.2997,3.3015,3.2772,3.277,3.2769,0,0,3.2334,3.2365,3.2451,3.2483,3.2531,3.2539,3.2559,3.26,3.2612,3.2707,3.2679,3.2738,3.2845,3.2878,3.2908,3.3059,3.3035,3.3078,3.3158,3.322,3.3238,3.3253,3.3307,3.3326,3.3091,3.3091,3.3091,0,3.24,3.2503,3.2498,3.2575,3.2611,3.2579,3.2665,3.2696,3.276,3.2785,3.2751,3.2884,3.2912,3.3029,3.3066,3.3092,3.3114,3.3074,3.3236,3.3251,3.3265,3.3316,3.3336,3.3096,3.3095,3.3095,3.3094,0,3.2581,3.2652,3.2716,3.2779,3.2822,3.2903,3.291,3.2953,3.2943,3.2955,3.3051,3.3084,3.3148,3.3175,3.3166,3.3291,3.327,3.3236,3.3175,3.3291,3.3339,3.3358,3.3103,3.3101,3.31,3.3098,0,0,3.2765,3.2823,3.2847,3.2875,3.2924,3.2979,3.3058,3.3121,3.3158,3.3203,3.3269,3.3359,3.3327,3.3362,3.3356,3.3411,3.3528,3.337,3.3371,3.3398,3.3667,3.3693,3.3715,3.3512,3.3515,3.3518,3.3663,0,3.2908,3.3048,3.3045,3.3174,3.324,3.3209,3.3278,3.3315,3.3327,3.3383,3.3396,3.346,3.3413,3.3434,3.3487,3.3503,3.3582,3.3492,3.3572,3.3575,3.3563,3.374,3.3768,3.3903,3.3682,3.3685,3.3687,0,3.3095,3.3146,3.3282,3.3321,3.3348,3.341,3.3467,3.3521,3.3562,3.3567,3.3605,3.359,3.367,3.3605,3.3714,3.3653,3.3685,3.3698,3.3703,3.371,3.3639,3.3753,3.3946,3.3967,3.3717,3.3714,3.3712,0,3.3216,3.3318,3.3413,3.3437,3.3485,3.3529,3.3551,3.3588,3.3626,3.3675,3.3699,3.3756,3.3788,3.3833,3.3833,3.3786,3.3943,3.3879,3.3948,3.3948,3.3983,3.3981,3.4185,3.4004,3.4003,3.4003,3.4002,0,3.3376,3.3461,3.3467,3.3526,3.3619,3.3614,3.3705,3.3723,3.3756,3.3816,3.3792,3.3849,3.3846,3.3903,3.3904,3.3993,3.4008,3.4013,3.4012,3.4016,3.4015,3.4037,3.4028,3.4008,3.4007,3.4006,3.4005,0,3.3527,3.3535,3.3636,3.3673,3.3684,3.3751,3.3781,3.3836,3.3845,3.3922,3.3939,3.3954,3.402,3.4024,3.4101,3.4101,3.4209,3.4198,3.4196,3.4194,3.4264,3.4257,3.4489,3.4519,3.4318,3.432,3.4322,0,3.363,3.3694,3.3737,3.3776,3.3801,3.3863,3.3901,3.3898,3.3939,3.3989,3.4038,3.4101,3.4152,3.4259,3.4276,3.4334,3.4324,3.4401,3.4332,3.4333,3.4325,3.4321,3.4328,3.4414,3.4417,3.4418,3.442,0,3.3811,3.3811,3.3868,3.3925,3.3972,3.4017,3.4059,3.4092,3.4093,3.414,3.4207,3.4246,3.4324,3.4387,3.4444,3.4465,3.4443,3.4441,3.446,3.4465,3.4461,3.4464,3.4233,3.4436,3.4435,3.4433,3.4432,3.4432,3.3941,3.3996,3.4035,3.4098,3.4129,3.4169,3.4222,3.4237,3.4294,3.4357,3.4351,3.4426,3.4463,3.4537,3.4562,3.462,3.4593,3.4621,3.4628,3.4636,3.4643,3.4451,3.463,3.4629,3.4629,3.4629,3.4628,0,3.412,3.4144,3.4202,3.4261,3.4311,3.4286,3.433,3.4373,3.4439,3.4476,3.4527,3.4604,3.4665,3.4686,3.4745,3.4787,3.4778,3.4802,3.48,3.4805,3.4663,3.4641,3.4808,3.4808,3.4808,3.4808,3.4808,3.4808,3.422,3.4312,3.4317,3.4423,3.4446,3.4519,3.4547,3.4582,3.4612,3.4699,3.475,3.4763,3.4794,3.4854,3.4909,3.4913,3.4936,3.4965,3.4965,3.4833,3.4815,3.4797,3.4776,3.497,3.497,3.5102,3.5103,3.5104]}]]